Regional Weather Roundup
Issued by NWS Sterling, VA

Current Version | Previous Version | Text Only | Print | Product List | Glossary On
Versions: 1 2 3 4 5 6 7 8 9 10 11 12 13 14 15 16 17 18 19 20 21 22 23 24 25 26 27 28 29 30 31 32 33 34 35 36 37 38 39 40 41 42 43 44 45 46 47 48 49 50
000
ASUS41 KLWX 010510
RWRLWX

REGIONAL WEATHER ROUNDUP
NATIONAL WEATHER SERVICE BALTIMORE MD/WASHINGTON DC
100 AM EDT TUE SEP 01 2015

Note: "FAIR" indicates few or no clouds below 12,000 feet
with no significant weather and/or obstructions to visibility.
 TC=TEMPERATURE CELSIUS

 * =Non NWS site. Station does not report precipitation (e.g. rain,
    snow, etc.), thunder, or fog.

DCZ001-MDZ009-015-VAZ040>042-051-053>054-010600-
WASHINGTON METRO

CITY           SKY/WX    TMP DP  RH WIND       PRES   REMARKS
WASHINGTON NAT PTCLDY    75  70  84 SW8       30.07S
DULLES         CLEAR     72  68  87 S6        30.07S
ANDREWS AFB    CLEAR     73  69  89 SW8       30.06S
FT BELVOIR     CLEAR     74  70  86 VRB1      30.07R
QUANTICO       CLEAR     74  68  81 SW5       30.08R
COLLEGE PARK*  CLEAR     77  70  78 CALM      30.06S
LEESBURG*      CLEAR     72  70  94 S6        30.08S
MANASSAS*      CLEAR     70  70 100 CALM      30.08R
GAITHERSBURG*  CLEAR     73  66  78 CALM      30.11S

$$

MDZ006>007-011-014-010600-
BALTIMORE METRO

CITY           SKY/WX    TMP DP  RH WIND       PRES   REMARKS
BWI AIRPORT    CLEAR     74  68  81 SW3       30.05S
MD SCIENCE CTR   N/A     77  65  66 MISG      30.05F
ANNAPOLIS      CLEAR     74  70  87 SW6       30.05S
FORT MEADE*    CLEAR     66  64  94 CALM      30.08S

$$

MDZ012-015-019>023-010600-
MARYLAND EASTERN SHORE

CITY           SKY/WX    TMP DP  RH WIND       PRES   REMARKS
OCEAN CITY     CLEAR     72  67  84 W5        30.07S
SALISBURY      CLEAR     70  68  93 CALM      30.06S
BAY BRIDGE AP*   N/A     73  70  88 SW8       30.06S
CAMBRIDGE*     CLEAR     72  70  94 CALM      30.06S

$$

MDZ017>025-010600-
SOUTHERN MARYLAND

CITY           SKY/WX    TMP DP  RH WIND       PRES   REMARKS
PATUXENT RIVER CLEAR     72  68  87 SW8       30.06S
ST INIGOES     CLEAR     74  69  85 SW9       30.07R
LEONARDTOWN*   NOT AVBL

$$

MDZ003>005-010600-
NORTH CENTRAL MARYLAND

CITY           SKY/WX    TMP DP  RH WIND       PRES   REMARKS
FREDERICK*     CLEAR     70  68  94 S3        30.09S
HAGERSTOWN APT CLEAR     74  66  76 SE5       30.07S
WESTMINSTER*   CLEAR     73  66  78 SW5       30.08S

$$

MDZ501>502-010600-
WESTERN MARYLAND

CITY           SKY/WX    TMP DP  RH WIND       PRES   REMARKS
OAKLAND*       CLEAR     64  59  82 SW3       30.21S
CUMBERLAND*    CLEAR     70  68  94 CALM      30.13S

$$

VAZ025>031-010600-
SHENANDOAH VALLEY

CITY           SKY/WX    TMP DP  RH WIND       PRES   REMARKS
WINCHESTER*    PTCLDY    66  63  88 CALM      30.08S
FRONT ROYAL*   FAIR      70  64  83 S5        30.08S
LURAY*         FAIR      64  63  94 CALM      30.11R
NEW MARKET*    FAIR      65  63  91 CALM      30.10S
STAUNTON*      CLEAR     66  62  87 CALM      30.14S
WAYNESBORO*    FAIR      68  62  81 CALM      30.14S

$$

WVZ021-048>050-054>055-010600-
EASTERN WEST VIRGINIA PANHANDLE

CITY           SKY/WX    TMP DP  RH WIND       PRES   REMARKS
MARTINSBURG    CLEAR     67  64  90 CALM      30.07S
PETERSBURG*    CLEAR     66  65  97 CALM      30.13R

$$

VAZ036>039-050-010600-
CENTRAL FOOTHILLS

CITY           SKY/WX    TMP DP  RH WIND       PRES   REMARKS
CHARLOTTESVILL CLEAR     71  67  87 SW3       30.09S
CULPEPER*      CLEAR     71  69  94 SW3       30.09S
ORANGE*        CLEAR     70  68  94 S3        30.10S
GORDONSVILLE*  FAIR      70  69  97 CALM      30.09S
WARRENTON*     FAIR      71  70  96 S3        30.08R

$$

VAZ055>057-010600-
NORTH AND CENTRAL PIEDMONT

CITY           SKY/WX    TMP DP  RH WIND       PRES   REMARKS
FREDERICKSBRG* CLEAR     74  72  93 SW3       30.07S
STAFFORD*      CLEAR     71  68  90 CALM      30.11F

$$

NCZ024-NYZ072-PAZ021-071-VAZ022-071-010600-
OTHER REGIONAL OBSERVATIONS

CITY           SKY/WX    TMP DP  RH WIND       PRES   REMARKS
NEW YORK CITY  CLEAR     81  66  60 VRB5      30.03R
PHILADELPHIA   CLEAR     77  67  71 SW12      30.04S
PITTSBURGH     CLEAR     71  66  84 W3        30.11R
ROANOKE        PTCLDY    70  64  81 CALM      30.15S
RICHMOND       CLOUDY    73  69  87 SW9       30.08S
RALEIGH        MOCLDY    70  68  94 CALM      30.09F FOG

$$

ANZ530>537-010600-
MARINE OBSERVATIONS

STATION/POSITION TIME  TEMP    WIND        PRES
                       AIR SEA DIR/SP/G
                 (UTC) (F)     (DEG/KT/KT) (MB)
THOMAS PT LIGHT  NOT AVBL
BALT KEY BRIDGE  0400   76     210/ 10/ 12   N/A
COVE POINT       0400   75     260/ 10/ 13   N/A
LEWISETTA        0400   73 79  260/  7/  9   N/A
SOLOMONS ISLAND  0400      80                N/A
PINEY POINT      0405          260/  6/  9   N/A

$$




USA.gov is the U.S. government's official web portal to all federal, state and local government web resources and services.